Year,Month,Day,Hour,Minute,Value (Times are PST for temperature in C)
2010,09,28,00,00,17.90
2010,09,28,00,01,17.90
2010,09,28,00,02,17.90
2010,09,28,00,03,17.90
2010,09,28,00,04,17.90
2010,09,28,00,05,17.90
2010,09,28,00,06,17.90
2010,09,28,00,07,18.00
2010,09,28,00,08,18.10
2010,09,28,00,09,18.10
2010,09,28,00,10,18.10
2010,09,28,00,11,18.10
2010,09,28,00,12,18.10
2010,09,28,00,13,18.10
2010,09,28,00,14,18.10
2010,09,28,00,15,18.10
2010,09,28,00,16,18.10
2010,09,28,00,17,18.10
2010,09,28,00,18,18.10
2010,09,28,00,19,18.10
2010,09,28,00,20,18.20
2010,09,28,00,21,18.20
2010,09,28,00,22,18.20
2010,09,28,00,23,18.20
2010,09,28,00,24,18.20
2010,09,28,00,25,18.20
2010,09,28,00,26,18.20
2010,09,28,00,27,18.20
2010,09,28,00,28,18.20
2010,09,28,00,29,18.20
2010,09,28,00,30,18.20
2010,09,28,00,31,18.20
2010,09,28,00,32,18.20
2010,09,28,00,33,18.20
2010,09,28,00,34,18.20
2010,09,28,00,35,18.20
2010,09,28,00,36,18.20
2010,09,28,00,37,18.20
2010,09,28,00,38,18.20
2010,09,28,00,39,18.20
2010,09,28,00,40,18.20
2010,09,28,00,41,18.20
2010,09,28,00,42,18.20
2010,09,28,00,43,18.20
2010,09,28,00,44,18.20
2010,09,28,00,45,18.20
2010,09,28,00,46,18.20
2010,09,28,00,47,18.20
2010,09,28,00,48,18.20
2010,09,28,00,49,18.20
2010,09,28,00,50,18.20
2010,09,28,00,51,18.20
2010,09,28,00,52,18.20
2010,09,28,00,53,18.20
2010,09,28,00,54,18.20
2010,09,28,00,55,18.10
2010,09,28,00,56,18.10
2010,09,28,00,57,18.10
2010,09,28,00,58,18.10
2010,09,28,00,59,18.10
2010,09,28,01,00,18.10
2010,09,28,01,01,18.10
2010,09,28,01,02,18.10
2010,09,28,01,03,18.10
2010,09,28,01,04,18.10
2010,09,28,01,05,18.10
2010,09,28,01,06,18.10
2010,09,28,01,07,18.10
2010,09,28,01,08,18.10
2010,09,28,01,09,18.10
2010,09,28,01,10,18.10
2010,09,28,01,11,18.10
2010,09,28,01,12,18.10
2010,09,28,01,13,18.10
2010,09,28,01,14,18.00
2010,09,28,01,15,17.90
2010,09,28,01,16,17.90
2010,09,28,01,17,17.90
2010,09,28,01,18,17.90
2010,09,28,01,19,17.90
2010,09,28,01,20,17.90
2010,09,28,01,21,17.90
2010,09,28,01,22,17.90
2010,09,28,01,23,17.90
2010,09,28,01,24,17.90
2010,09,28,01,25,17.90
2010,09,28,01,26,17.90
2010,09,28,01,27,17.90
2010,09,28,01,28,17.90
2010,09,28,01,29,17.90
2010,09,28,01,30,17.90
2010,09,28,01,31,17.90
2010,09,28,01,32,17.90
2010,09,28,01,33,17.90
2010,09,28,01,34,17.90
2010,09,28,01,35,17.90
2010,09,28,01,36,17.90
2010,09,28,01,37,17.90
2010,09,28,01,38,17.90
2010,09,28,01,39,17.90
2010,09,28,01,40,17.90
2010,09,28,01,41,17.90
2010,09,28,01,42,17.90
2010,09,28,01,43,17.80
2010,09,28,01,44,17.80
2010,09,28,01,45,17.80
2010,09,28,01,46,17.80
2010,09,28,01,47,17.80
2010,09,28,01,48,17.80
2010,09,28,01,49,17.80
2010,09,28,01,50,17.80
2010,09,28,01,51,17.80
2010,09,28,01,52,17.70
2010,09,28,01,53,17.70
2010,09,28,01,54,17.70
2010,09,28,01,55,17.70
2010,09,28,01,56,17.70
2010,09,28,01,57,17.70
2010,09,28,01,58,17.70
2010,09,28,01,59,17.70
2010,09,28,02,00,17.70
2010,09,28,02,01,17.60
2010,09,28,02,02,17.60
2010,09,28,02,03,17.60
2010,09,28,02,04,17.60
2010,09,28,02,05,17.60
2010,09,28,02,06,17.60
2010,09,28,02,07,17.60
2010,09,28,02,08,17.60
2010,09,28,02,09,17.60
2010,09,28,02,10,17.60
2010,09,28,02,11,17.60
2010,09,28,02,12,17.60
2010,09,28,02,13,17.60
2010,09,28,02,14,17.60
2010,09,28,02,15,17.60
2010,09,28,02,16,17.60
2010,09,28,02,17,17.60
2010,09,28,02,18,17.60
2010,09,28,02,19,17.60
2010,09,28,02,20,17.60
2010,09,28,02,21,17.60
2010,09,28,02,22,17.60
2010,09,28,02,23,17.50
2010,09,28,02,24,17.50
2010,09,28,02,25,17.50
2010,09,28,02,26,17.50
2010,09,28,02,27,17.50
2010,09,28,02,28,17.50
2010,09,28,02,29,17.50
2010,09,28,02,30,17.50
2010,09,28,02,31,17.50
2010,09,28,02,32,17.40
2010,09,28,02,33,17.40
2010,09,28,02,34,17.40
2010,09,28,02,35,17.40
2010,09,28,02,36,17.40
2010,09,28,02,37,17.40
2010,09,28,02,38,17.40
2010,09,28,02,39,17.40
2010,09,28,02,40,17.40
2010,09,28,02,41,17.30
2010,09,28,02,42,17.30
2010,09,28,02,43,17.30
2010,09,28,02,44,17.30
2010,09,28,02,45,17.30
2010,09,28,02,46,17.30
2010,09,28,02,47,17.30
2010,09,28,02,48,17.30
2010,09,28,02,49,17.30
2010,09,28,02,50,17.30
2010,09,28,02,51,17.30
2010,09,28,02,52,17.30
2010,09,28,02,53,17.30
2010,09,28,02,54,17.30
2010,09,28,02,55,17.30
2010,09,28,02,56,17.30
2010,09,28,02,57,17.30
2010,09,28,02,58,17.30
2010,09,28,02,59,17.30
2010,09,28,03,00,17.30
2010,09,28,03,01,17.30
2010,09,28,03,02,17.30
2010,09,28,03,03,17.30
2010,09,28,03,04,17.30
2010,09,28,03,05,17.30
2010,09,28,03,06,17.30
2010,09,28,03,07,17.30
2010,09,28,03,08,17.30
2010,09,28,03,09,17.30
2010,09,28,03,10,17.30
2010,09,28,03,11,17.30
2010,09,28,03,12,17.20
2010,09,28,03,13,17.20
2010,09,28,03,14,17.20
2010,09,28,03,15,17.20
2010,09,28,03,16,17.20
2010,09,28,03,17,17.20
2010,09,28,03,18,17.20
2010,09,28,03,19,17.20
2010,09,28,03,20,17.20
2010,09,28,03,21,17.20
2010,09,28,03,22,17.20
2010,09,28,03,23,17.20
2010,09,28,03,24,17.20
2010,09,28,03,25,17.20
2010,09,28,03,26,17.20
2010,09,28,03,27,17.20
2010,09,28,03,28,17.10
2010,09,28,03,29,17.10
2010,09,28,03,30,17.10
2010,09,28,03,31,17.10
2010,09,28,03,32,17.10
2010,09,28,03,33,17.10
2010,09,28,03,34,17.10
2010,09,28,03,35,17.10
2010,09,28,03,36,17.10
2010,09,28,03,37,17.10
2010,09,28,03,38,17.10
2010,09,28,03,39,17.10
2010,09,28,03,40,17.10
2010,09,28,03,41,17.10
2010,09,28,03,42,17.10
2010,09,28,03,43,17.10
2010,09,28,03,44,17.10
2010,09,28,03,45,17.10
2010,09,28,03,46,17.10
2010,09,28,03,47,17.10
2010,09,28,03,48,17.10
2010,09,28,03,49,17.10
2010,09,28,03,50,17.10
2010,09,28,03,51,17.20
2010,09,28,03,52,17.20
2010,09,28,03,53,17.20
2010,09,28,03,54,17.20
2010,09,28,03,55,17.20
2010,09,28,03,56,17.20
2010,09,28,03,57,17.20
2010,09,28,03,58,17.20
2010,09,28,03,59,17.30
2010,09,28,04,00,17.30
2010,09,28,04,01,17.30
2010,09,28,04,02,17.20
2010,09,28,04,03,17.30
2010,09,28,04,04,17.30
2010,09,28,04,05,17.30
2010,09,28,04,06,17.30
2010,09,28,04,07,17.30
2010,09,28,04,08,17.30
2010,09,28,04,09,17.30
2010,09,28,04,10,17.30
2010,09,28,04,11,17.30
2010,09,28,04,12,17.30
2010,09,28,04,13,17.30
2010,09,28,04,14,17.20
2010,09,28,04,15,17.20
2010,09,28,04,16,17.20
2010,09,28,04,17,17.20
2010,09,28,04,18,17.20
2010,09,28,04,19,17.20
2010,09,28,04,20,17.10
2010,09,28,04,21,17.10
2010,09,28,04,22,17.10
2010,09,28,04,23,17.10
2010,09,28,04,24,17.10
2010,09,28,04,25,17.10
2010,09,28,04,26,17.10
2010,09,28,04,27,17.10
2010,09,28,04,28,17.10
2010,09,28,04,29,17.10
2010,09,28,04,30,17.10
2010,09,28,04,31,17.10
2010,09,28,04,32,17.10
2010,09,28,04,33,17.10
2010,09,28,04,34,17.10
2010,09,28,04,35,17.00
2010,09,28,04,36,17.00
2010,09,28,04,37,17.00
2010,09,28,04,38,17.00
2010,09,28,04,39,17.00
2010,09,28,04,40,17.00
2010,09,28,04,41,16.90
2010,09,28,04,42,16.90
2010,09,28,04,43,16.90
2010,09,28,04,44,16.90
2010,09,28,04,45,16.90
2010,09,28,04,46,16.90
2010,09,28,04,47,17.00
2010,09,28,04,48,17.00
2010,09,28,04,49,17.00
2010,09,28,04,50,17.00
2010,09,28,04,51,17.10
2010,09,28,04,52,17.10
2010,09,28,04,53,17.10
2010,09,28,04,54,17.10
2010,09,28,04,55,17.10
2010,09,28,04,56,17.10
2010,09,28,04,57,17.10
2010,09,28,04,58,17.10
2010,09,28,04,59,17.10
2010,09,28,05,00,17.10
2010,09,28,05,01,17.10
2010,09,28,05,02,17.10
2010,09,28,05,03,17.10
2010,09,28,05,04,17.10
2010,09,28,05,05,17.10
2010,09,28,05,06,17.10
2010,09,28,05,07,17.10
2010,09,28,05,08,17.00
2010,09,28,05,09,17.00
2010,09,28,05,10,17.00
2010,09,28,05,11,17.00
2010,09,28,05,12,17.00
2010,09,28,05,13,17.00
2010,09,28,05,14,17.00
2010,09,28,05,15,16.90
2010,09,28,05,16,16.90
2010,09,28,05,17,16.90
2010,09,28,05,18,16.90
2010,09,28,05,19,16.90
2010,09,28,05,20,16.90
2010,09,28,05,21,16.90
2010,09,28,05,22,16.80
2010,09,28,05,23,16.80
2010,09,28,05,24,16.70
2010,09,28,05,25,16.70
2010,09,28,05,26,16.70
2010,09,28,05,27,16.70
2010,09,28,05,28,16.70
2010,09,28,05,29,16.70
2010,09,28,05,30,16.70
2010,09,28,05,31,16.70
2010,09,28,05,32,16.70
2010,09,28,05,33,16.70
2010,09,28,05,34,16.70
2010,09,28,05,35,16.70
2010,09,28,05,36,16.70
2010,09,28,05,37,16.70
2010,09,28,05,38,16.70
2010,09,28,05,39,16.60
2010,09,28,05,40,16.60
2010,09,28,05,41,16.60
2010,09,28,05,42,16.60
2010,09,28,05,43,16.60
2010,09,28,05,44,16.60
2010,09,28,05,45,16.60
2010,09,28,05,46,16.60
2010,09,28,05,47,16.50
2010,09,28,05,48,16.40
2010,09,28,05,49,16.40
2010,09,28,05,50,16.40
2010,09,28,05,51,16.40
2010,09,28,05,52,16.40
2010,09,28,05,53,16.50
2010,09,28,05,54,16.50
2010,09,28,05,55,16.60
2010,09,28,05,56,16.60
2010,09,28,05,57,16.60
2010,09,28,05,58,16.60
2010,09,28,05,59,16.60
2010,09,28,06,00,16.60
2010,09,28,06,01,16.60
2010,09,28,06,02,16.70
2010,09,28,06,03,16.70
2010,09,28,06,04,16.70
2010,09,28,06,05,16.70
2010,09,28,06,06,16.70
2010,09,28,06,07,16.70
2010,09,28,06,08,16.70
2010,09,28,06,09,16.70
2010,09,28,06,10,16.70
2010,09,28,06,11,16.70
2010,09,28,06,12,16.70
2010,09,28,06,13,16.70
2010,09,28,06,14,16.70
2010,09,28,06,15,16.70
2010,09,28,06,16,16.60
2010,09,28,06,17,16.60
2010,09,28,06,18,16.60
2010,09,28,06,19,16.60
2010,09,28,06,20,16.60
2010,09,28,06,21,16.60
2010,09,28,06,22,16.60
2010,09,28,06,23,16.60
2010,09,28,06,24,16.60
2010,09,28,06,25,16.60
2010,09,28,06,26,16.60
2010,09,28,06,27,16.60
2010,09,28,06,28,16.60
2010,09,28,06,29,16.40
2010,09,28,06,30,16.40
2010,09,28,06,31,16.40
2010,09,28,06,32,16.40
2010,09,28,06,33,16.40
2010,09,28,06,34,16.40
2010,09,28,06,35,16.40
2010,09,28,06,36,16.40
2010,09,28,06,37,16.40
2010,09,28,06,38,16.40
2010,09,28,06,39,16.30
2010,09,28,06,40,16.30
2010,09,28,06,41,16.30
2010,09,28,06,42,16.30
2010,09,28,06,43,16.20
2010,09,28,06,44,16.20
2010,09,28,06,45,16.20
2010,09,28,06,46,16.10
2010,09,28,06,47,16.10
2010,09,28,06,48,16.10
2010,09,28,06,49,16.10
2010,09,28,06,50,16.00
2010,09,28,06,51,15.90
2010,09,28,06,52,15.90
2010,09,28,06,53,15.90
2010,09,28,06,54,15.80
2010,09,28,06,55,15.80
2010,09,28,06,56,15.80
2010,09,28,06,57,15.80
2010,09,28,06,58,15.80
2010,09,28,06,59,15.80
2010,09,28,07,00,15.70
2010,09,28,07,01,15.70
2010,09,28,07,02,15.70
2010,09,28,07,03,15.70
2010,09,28,07,04,15.70
2010,09,28,07,05,15.70
2010,09,28,07,06,15.60
2010,09,28,07,07,15.60
2010,09,28,07,08,15.70
2010,09,28,07,09,15.70
2010,09,28,07,10,15.70
2010,09,28,07,11,15.70
2010,09,28,07,12,15.70
2010,09,28,07,13,15.70
2010,09,28,07,14,15.70
2010,09,28,07,15,15.70
2010,09,28,07,16,15.70
2010,09,28,07,17,15.70
2010,09,28,07,18,15.70
2010,09,28,07,19,15.70
2010,09,28,07,20,15.70
2010,09,28,07,21,15.70
2010,09,28,07,22,15.70
2010,09,28,07,23,15.70
2010,09,28,07,24,15.70
2010,09,28,07,25,15.80
2010,09,28,07,26,15.80
2010,09,28,07,27,15.80
2010,09,28,07,28,15.80
2010,09,28,07,29,15.80
2010,09,28,07,30,15.80
2010,09,28,07,31,15.80
2010,09,28,07,32,15.80
2010,09,28,07,33,15.80
2010,09,28,07,34,15.80
2010,09,28,07,35,15.90
2010,09,28,07,36,15.90
2010,09,28,07,37,15.90
2010,09,28,07,38,15.90
2010,09,28,07,39,15.90
2010,09,28,07,40,15.90
2010,09,28,07,41,15.90
2010,09,28,07,42,16.00
2010,09,28,07,43,16.00
2010,09,28,07,44,16.10
2010,09,28,07,45,16.10
2010,09,28,07,46,16.10
2010,09,28,07,47,16.10
2010,09,28,07,48,16.10
2010,09,28,07,49,16.10
2010,09,28,07,50,16.10
2010,09,28,07,51,16.20
2010,09,28,07,52,16.20
2010,09,28,07,53,16.20
2010,09,28,07,54,16.30
2010,09,28,07,55,16.30
2010,09,28,07,56,16.40
2010,09,28,07,57,16.40
2010,09,28,07,58,16.40
2010,09,28,07,59,16.40
2010,09,28,08,00,16.40
2010,09,28,08,01,16.40
2010,09,28,08,02,16.40
2010,09,28,08,03,16.40
2010,09,28,08,04,16.40
2010,09,28,08,05,16.40
2010,09,28,08,06,16.60
2010,09,28,08,07,16.60
2010,09,28,08,08,16.60
2010,09,28,08,09,16.60
2010,09,28,08,10,16.70
2010,09,28,08,11,16.70
2010,09,28,08,12,16.70
2010,09,28,08,13,16.70
2010,09,28,08,14,16.70
2010,09,28,08,15,16.70
2010,09,28,08,16,16.70
2010,09,28,08,17,16.70
2010,09,28,08,18,16.70
2010,09,28,08,19,16.70
2010,09,28,08,20,16.70
2010,09,28,08,21,16.70
2010,09,28,08,22,16.70
2010,09,28,08,23,16.70
2010,09,28,08,24,16.70
2010,09,28,08,25,16.70
2010,09,28,08,26,16.70
2010,09,28,08,27,16.70
2010,09,28,08,28,16.70
2010,09,28,08,29,16.70
2010,09,28,08,30,16.70
2010,09,28,08,31,16.70
2010,09,28,08,32,16.70
2010,09,28,08,33,16.70
2010,09,28,08,34,16.70
2010,09,28,08,35,16.70
2010,09,28,08,36,16.70
2010,09,28,08,37,16.70
2010,09,28,08,38,16.70
2010,09,28,08,39,16.70
2010,09,28,08,40,16.80
2010,09,28,08,41,16.80
2010,09,28,08,42,16.80
2010,09,28,08,43,16.80
2010,09,28,08,44,16.80
2010,09,28,08,45,16.90
2010,09,28,08,46,16.90
2010,09,28,08,47,16.90
2010,09,28,08,48,16.90
2010,09,28,08,49,16.90
2010,09,28,08,50,16.90
2010,09,28,08,51,16.90
2010,09,28,08,52,16.90
2010,09,28,08,53,17.00
2010,09,28,08,54,17.00
2010,09,28,08,55,17.00
2010,09,28,08,56,17.00
2010,09,28,08,57,17.00
2010,09,28,08,58,17.10
2010,09,28,08,59,17.10
2010,09,28,09,00,17.10
2010,09,28,09,01,17.10
2010,09,28,09,02,17.10
2010,09,28,09,03,17.20
2010,09,28,09,04,17.20
2010,09,28,09,05,17.20
2010,09,28,09,06,17.20
2010,09,28,09,07,17.20
2010,09,28,09,08,17.20
2010,09,28,09,09,17.10
2010,09,28,09,10,17.10
2010,09,28,09,11,17.10
2010,09,28,09,12,17.00
2010,09,28,09,13,17.00
2010,09,28,09,14,17.00
2010,09,28,09,15,16.90
2010,09,28,09,16,16.90
2010,09,28,09,17,16.90
2010,09,28,09,18,16.80
2010,09,28,09,19,16.80
2010,09,28,09,20,16.80
2010,09,28,09,21,16.80
2010,09,28,09,22,16.70
2010,09,28,09,23,16.70
2010,09,28,09,24,16.70
2010,09,28,09,25,16.70
2010,09,28,09,26,16.70
2010,09,28,09,27,16.70
2010,09,28,09,28,16.70
2010,09,28,09,29,16.70
2010,09,28,09,30,16.70
2010,09,28,09,31,16.70
2010,09,28,09,32,16.70
2010,09,28,09,33,16.70
2010,09,28,09,34,16.70
2010,09,28,09,35,16.70
2010,09,28,09,36,16.70
2010,09,28,09,37,16.70
2010,09,28,09,38,16.80
2010,09,28,09,39,16.80
2010,09,28,09,40,16.80
2010,09,28,09,41,16.80
2010,09,28,09,42,16.80
2010,09,28,09,43,16.80
2010,09,28,09,44,16.80
2010,09,28,09,45,16.80
2010,09,28,09,46,16.70
2010,09,28,09,47,16.70
2010,09,28,09,48,16.70
2010,09,28,09,49,16.70
2010,09,28,09,50,16.70
2010,09,28,09,51,16.70
2010,09,28,09,52,16.70
2010,09,28,09,53,16.70
2010,09,28,09,54,16.70
2010,09,28,09,55,16.70
2010,09,28,09,56,16.80
2010,09,28,09,57,16.80
2010,09,28,09,58,16.80
2010,09,28,09,59,16.80
2010,09,28,10,00,16.80
2010,09,28,10,01,16.80
2010,09,28,10,02,16.80
2010,09,28,10,03,16.80
2010,09,28,10,04,16.80
2010,09,28,10,05,16.80
2010,09,28,10,06,16.80
2010,09,28,10,07,16.80
2010,09,28,10,08,16.80
2010,09,28,10,09,16.80
2010,09,28,10,10,16.80
2010,09,28,10,11,16.80
2010,09,28,10,12,16.80
2010,09,28,10,13,16.80
2010,09,28,10,14,16.80
2010,09,28,10,15,16.80
2010,09,28,10,16,16.80
2010,09,28,10,17,16.80
2010,09,28,10,18,16.80
2010,09,28,10,19,16.70
2010,09,28,10,20,16.70
2010,09,28,10,21,16.70
2010,09,28,10,22,16.70
2010,09,28,10,23,16.70
2010,09,28,10,24,16.70
2010,09,28,10,25,16.70
2010,09,28,10,26,16.70
2010,09,28,10,27,16.70
2010,09,28,10,28,16.70
2010,09,28,10,29,16.70
2010,09,28,10,30,16.70
2010,09,28,10,31,16.70
2010,09,28,10,32,16.70
2010,09,28,10,33,16.70
2010,09,28,10,34,16.70
2010,09,28,10,35,16.70
2010,09,28,10,36,16.70
2010,09,28,10,37,16.60
2010,09,28,10,38,16.60
2010,09,28,10,39,16.60
2010,09,28,10,40,16.50
2010,09,28,10,41,16.40
2010,09,28,10,42,16.40
2010,09,28,10,43,16.40
2010,09,28,10,44,16.40
2010,09,28,10,45,16.50
2010,09,28,10,46,16.60
2010,09,28,10,47,16.60
2010,09,28,10,48,16.60
2010,09,28,10,49,16.60
2010,09,28,10,50,16.50
2010,09,28,10,51,16.40
2010,09,28,10,52,16.40
2010,09,28,10,53,16.40
2010,09,28,10,54,16.40
2010,09,28,10,55,16.40
2010,09,28,10,56,16.50
2010,09,28,10,57,16.60
2010,09,28,10,58,16.60
2010,09,28,10,59,16.60
2010,09,28,11,00,16.60
2010,09,28,11,01,16.70
2010,09,28,11,02,16.70
2010,09,28,11,03,16.70
2010,09,28,11,04,16.70
2010,09,28,11,05,16.80
2010,09,28,11,06,16.80
2010,09,28,11,07,16.80
2010,09,28,11,08,16.80
2010,09,28,11,09,16.80
2010,09,28,11,10,16.80
2010,09,28,11,11,16.90
2010,09,28,11,12,16.90
2010,09,28,11,13,17.00
2010,09,28,11,14,17.00
2010,09,28,11,15,17.00
2010,09,28,11,16,17.00
2010,09,28,11,17,17.10
2010,09,28,11,18,17.10
2010,09,28,11,19,17.10
2010,09,28,11,20,17.20
2010,09,28,11,21,17.20
2010,09,28,11,22,17.30
2010,09,28,11,23,17.30
2010,09,28,11,24,17.30
2010,09,28,11,25,17.40
2010,09,28,11,26,17.40
2010,09,28,11,27,17.50
2010,09,28,11,28,17.50
2010,09,28,11,29,17.60
2010,09,28,11,30,17.70
2010,09,28,11,31,17.70
2010,09,28,11,32,17.70
2010,09,28,11,33,17.80
2010,09,28,11,34,17.90
2010,09,28,11,35,18.00
2010,09,28,11,36,18.10
2010,09,28,11,37,18.20
2010,09,28,11,38,18.30
2010,09,28,11,39,18.40
2010,09,28,11,40,18.50
2010,09,28,11,41,18.60
2010,09,28,11,42,18.70
2010,09,28,11,43,18.70
2010,09,28,11,44,18.80
2010,09,28,11,45,18.90
2010,09,28,11,46,18.90
2010,09,28,11,47,18.90
2010,09,28,11,48,18.90
2010,09,28,11,49,18.90
2010,09,28,11,50,18.90
2010,09,28,11,51,18.90
2010,09,28,11,52,18.90
2010,09,28,11,53,19.00
2010,09,28,11,54,19.10
2010,09,28,11,55,19.10
2010,09,28,11,56,19.20
2010,09,28,11,57,19.30
2010,09,28,11,58,19.40
2010,09,28,11,59,19.40
2010,09,28,12,00,19.40
2010,09,28,12,01,19.40
2010,09,28,12,02,19.50
2010,09,28,12,03,19.70
2010,09,28,12,04,19.70
2010,09,28,12,05,19.70
2010,09,28,12,06,19.60
2010,09,28,12,07,19.60
2010,09,28,12,08,19.60
2010,09,28,12,09,19.50
2010,09,28,12,10,19.50
2010,09,28,12,11,19.50
2010,09,28,12,12,19.40
2010,09,28,12,13,19.30
2010,09,28,12,14,19.20
2010,09,28,12,15,19.20
2010,09,28,12,16,19.20
2010,09,28,12,17,19.20
2010,09,28,12,18,19.30
2010,09,28,12,19,19.30
2010,09,28,12,20,19.40
2010,09,28,12,21,19.50
2010,09,28,12,22,19.50
2010,09,28,12,23,19.60
2010,09,28,12,24,19.50
2010,09,28,12,25,19.60
2010,09,28,12,26,19.60
2010,09,28,12,27,19.60
2010,09,28,12,28,19.70
2010,09,28,12,29,19.70
2010,09,28,12,30,19.80
2010,09,28,12,31,19.90
2010,09,28,12,32,19.90
2010,09,28,12,33,19.90
2010,09,28,12,34,20.10
2010,09,28,12,35,20.10
2010,09,28,12,36,20.20
2010,09,28,12,37,20.20
2010,09,28,12,38,20.20
2010,09,28,12,39,20.20
2010,09,28,12,40,20.30
2010,09,28,12,41,20.20
2010,09,28,12,42,20.20
2010,09,28,12,43,20.20
2010,09,28,12,44,20.20
2010,09,28,12,45,20.20
2010,09,28,12,46,20.20
2010,09,28,12,47,20.30
2010,09,28,12,48,20.40
2010,09,28,12,49,20.40
2010,09,28,12,50,20.40
2010,09,28,12,51,20.30
2010,09,28,12,52,20.30
2010,09,28,12,53,20.40
2010,09,28,12,54,20.50
2010,09,28,12,55,20.50
2010,09,28,12,56,20.50
2010,09,28,12,57,20.50
2010,09,28,12,58,20.50
2010,09,28,12,59,20.60
2010,09,28,13,00,20.60
2010,09,28,13,01,20.60
2010,09,28,13,02,20.60
2010,09,28,13,03,20.70
2010,09,28,13,04,20.80
2010,09,28,13,05,20.90
2010,09,28,13,06,20.80
2010,09,28,13,07,20.90
2010,09,28,13,08,20.90
2010,09,28,13,09,20.80
2010,09,28,13,10,20.70
2010,09,28,13,11,20.60
2010,09,28,13,12,20.50
2010,09,28,13,13,20.60
2010,09,28,13,14,20.60
2010,09,28,13,15,20.70
2010,09,28,13,16,20.70
2010,09,28,13,17,20.80
2010,09,28,13,18,20.80
2010,09,28,13,19,20.90
2010,09,28,13,20,21.00
2010,09,28,13,21,21.10
2010,09,28,13,22,21.20
2010,09,28,13,23,21.20
2010,09,28,13,24,21.30
2010,09,28,13,25,21.30
2010,09,28,13,26,21.30
2010,09,28,13,27,21.30
2010,09,28,13,28,21.40
2010,09,28,13,29,21.50
2010,09,28,13,30,21.60
2010,09,28,13,31,21.60
2010,09,28,13,32,21.60
2010,09,28,13,33,21.60
2010,09,28,13,34,21.60
2010,09,28,13,35,21.60
2010,09,28,13,36,21.50
2010,09,28,13,37,21.40
2010,09,28,13,38,21.30
2010,09,28,13,39,21.30
2010,09,28,13,40,21.20
2010,09,28,13,41,21.20
2010,09,28,13,42,21.10
2010,09,28,13,43,21.00
2010,09,28,13,44,20.90
2010,09,28,13,45,21.00
2010,09,28,13,46,21.00
2010,09,28,13,47,20.90
2010,09,28,13,48,20.80
2010,09,28,13,49,20.80
2010,09,28,13,50,20.80
2010,09,28,13,51,20.80
2010,09,28,13,52,20.80
2010,09,28,13,53,20.90
2010,09,28,13,54,21.00
2010,09,28,13,55,21.10
2010,09,28,13,56,21.20
2010,09,28,13,57,21.20
2010,09,28,13,58,21.10
2010,09,28,13,59,21.10
2010,09,28,14,00,21.00
2010,09,28,14,01,21.00
2010,09,28,14,02,21.00
2010,09,28,14,03,21.00
2010,09,28,14,04,21.00
2010,09,28,14,05,21.20
2010,09,28,14,06,21.30
2010,09,28,14,07,21.40
2010,09,28,14,08,21.40
2010,09,28,14,09,21.30
2010,09,28,14,10,21.30
2010,09,28,14,11,21.30
2010,09,28,14,12,21.30
2010,09,28,14,13,21.20
2010,09,28,14,14,21.20
2010,09,28,14,15,21.20
2010,09,28,14,16,21.30
2010,09,28,14,17,21.30
2010,09,28,14,18,21.30
2010,09,28,14,19,21.30
2010,09,28,14,20,21.40
2010,09,28,14,21,21.50
2010,09,28,14,22,21.60
2010,09,28,14,23,21.70
2010,09,28,14,24,21.70
2010,09,28,14,25,21.80
2010,09,28,14,26,21.80
2010,09,28,14,27,21.80
2010,09,28,14,28,21.80
2010,09,28,14,29,21.70
2010,09,28,14,30,21.60
2010,09,28,14,31,21.50
2010,09,28,14,32,21.40
2010,09,28,14,33,21.30
2010,09,28,14,34,21.10
2010,09,28,14,35,21.00
2010,09,28,14,36,21.00
2010,09,28,14,37,21.00
2010,09,28,14,38,21.00
2010,09,28,14,39,21.00
2010,09,28,14,40,20.90
2010,09,28,14,41,20.80
2010,09,28,14,42,20.80
2010,09,28,14,43,20.80
2010,09,28,14,44,20.80
2010,09,28,14,45,20.70
2010,09,28,14,46,20.60
2010,09,28,14,47,20.60
2010,09,28,14,48,20.60
2010,09,28,14,49,20.60
2010,09,28,14,50,20.70
2010,09,28,14,51,20.70
2010,09,28,14,52,20.80
2010,09,28,14,53,20.80
2010,09,28,14,54,21.00
2010,09,28,14,55,21.00
2010,09,28,14,56,21.00
2010,09,28,14,57,21.00
2010,09,28,14,58,21.10
2010,09,28,14,59,21.20
2010,09,28,15,00,21.30
2010,09,28,15,01,21.30
2010,09,28,15,02,21.30
2010,09,28,15,03,21.40
2010,09,28,15,04,21.40
2010,09,28,15,05,21.50
2010,09,28,15,06,21.60
2010,09,28,15,07,21.60
2010,09,28,15,08,21.60
2010,09,28,15,09,21.60
2010,09,28,15,10,21.60
2010,09,28,15,11,21.50
2010,09,28,15,12,21.30
2010,09,28,15,13,21.30
2010,09,28,15,14,21.20
2010,09,28,15,15,21.10
2010,09,28,15,16,21.10
2010,09,28,15,17,21.20
2010,09,28,15,18,21.30
2010,09,28,15,19,21.30
2010,09,28,15,20,21.20
2010,09,28,15,21,21.10
2010,09,28,15,22,21.20
2010,09,28,15,23,21.20
2010,09,28,15,24,21.20
2010,09,28,15,25,21.30
2010,09,28,15,26,21.30
2010,09,28,15,27,21.40
2010,09,28,15,28,21.60
2010,09,28,15,29,21.70
2010,09,28,15,30,21.70
2010,09,28,15,31,21.80
2010,09,28,15,32,21.80
2010,09,28,15,33,21.70
2010,09,28,15,34,21.70
2010,09,28,15,35,21.60
2010,09,28,15,36,21.60
2010,09,28,15,37,21.60
2010,09,28,15,38,21.50
2010,09,28,15,39,21.40
2010,09,28,15,40,21.30
2010,09,28,15,41,21.30
2010,09,28,15,42,21.30
2010,09,28,15,43,21.20
2010,09,28,15,44,21.10
2010,09,28,15,45,21.10
2010,09,28,15,46,21.10
2010,09,28,15,47,21.10
2010,09,28,15,48,21.00
2010,09,28,15,49,20.90
2010,09,28,15,50,20.80
2010,09,28,15,51,20.70
2010,09,28,15,52,20.60
2010,09,28,15,53,20.60
2010,09,28,15,54,20.50
2010,09,28,15,55,20.50
2010,09,28,15,56,20.40
2010,09,28,15,57,20.40
2010,09,28,15,58,20.30
2010,09,28,15,59,20.30
2010,09,28,16,00,20.20
2010,09,28,16,01,20.20
2010,09,28,16,02,20.20
2010,09,28,16,03,20.20
2010,09,28,16,04,20.20
2010,09,28,16,05,20.30
2010,09,28,16,06,20.40
2010,09,28,16,07,20.40
2010,09,28,16,08,20.40
2010,09,28,16,09,20.50
2010,09,28,16,10,20.50
2010,09,28,16,11,20.50
2010,09,28,16,12,20.50
2010,09,28,16,13,20.50
2010,09,28,16,14,20.40
2010,09,28,16,15,20.30
2010,09,28,16,16,20.20
2010,09,28,16,17,20.20
2010,09,28,16,18,20.20
2010,09,28,16,19,20.10
2010,09,28,16,20,20.10
2010,09,28,16,21,19.90
2010,09,28,16,22,20.00
2010,09,28,16,23,20.10
2010,09,28,16,24,20.10
2010,09,28,16,25,20.00
2010,09,28,16,26,19.90
2010,09,28,16,27,19.90
2010,09,28,16,28,19.90
2010,09,28,16,29,19.90
2010,09,28,16,30,20.10
2010,09,28,16,31,20.10
2010,09,28,16,32,20.10
2010,09,28,16,33,20.10
2010,09,28,16,34,20.10
2010,09,28,16,35,20.10
2010,09,28,16,36,20.10
2010,09,28,16,37,20.10
2010,09,28,16,38,20.20
2010,09,28,16,39,20.20
2010,09,28,16,40,20.20
2010,09,28,16,41,20.20
2010,09,28,16,42,20.20
2010,09,28,16,43,20.20
2010,09,28,16,44,20.20
2010,09,28,16,45,20.30
2010,09,28,16,46,20.40
2010,09,28,16,47,20.50
2010,09,28,16,48,20.60
2010,09,28,16,49,20.60
2010,09,28,16,50,20.60
2010,09,28,16,51,20.70
2010,09,28,16,52,20.80
2010,09,28,16,53,20.80
2010,09,28,16,54,21.00
2010,09,28,16,55,21.00
2010,09,28,16,56,21.10
2010,09,28,16,57,21.20
2010,09,28,16,58,21.30
2010,09,28,16,59,21.40
2010,09,28,17,00,21.50
2010,09,28,17,01,21.60
2010,09,28,17,02,21.60
2010,09,28,17,03,21.60
2010,09,28,17,04,21.60
2010,09,28,17,05,21.60
2010,09,28,17,06,21.60
2010,09,28,17,07,21.50
2010,09,28,17,08,21.40
2010,09,28,17,09,21.30
2010,09,28,17,10,21.30
2010,09,28,17,11,21.30
2010,09,28,17,12,21.30
2010,09,28,17,13,21.30
2010,09,28,17,14,21.30
2010,09,28,17,15,21.30
2010,09,28,17,16,21.30
2010,09,28,17,17,21.40
2010,09,28,17,18,21.40
2010,09,28,17,19,21.40